Zurück zum Katalog

TITAN 3C TRANSTAGE DEB

LostHEO
NORAD 28821·DEBRIS·🇺🇸 United States

Gestartet Dec 21, 1965 von Cape Canaveral Space Force Station

Loading…

Nächste Überflüge (nächste 24 Stunden)

TLE

VeraltetSource: Space-Track

Epoche: Mar 17, 2026, 10:29 UTC

1 28821U 65108CJ  26076.43682659  .00000011  00000-0  00000-0 0  9997
2 28821  28.3559  63.9743 6541083 205.3076  98.2198  2.63588996  4127

Verfolge TITAN 3C TRANSTAGE DEB in Echtzeit mit AllMySat

Download on the App Store